• Processing (Info)

  • MPEC 2019-P49 : 2019 PL

    The following Minor Planet Electronic Circular may be linked-to from your own Web pages, but must not otherwise be redistributed electronically.

    A form allowing access to any MPEC is at the bottom of this page.


    Read MPEC 2019-P48 Read MPEC 2019-P50


    M.P.E.C. 2019-P49                                Issued 2019 August 7, 13:26 UT  
    
         The Minor Planet Electronic Circulars contain information on unusual
             minor planets and routine data on comets.  They are published
        on behalf of Division F of the International Astronomical Union by the
              Minor Planet Center, Smithsonian Astrophysical Observatory,
                              Cambridge, MA 02138, U.S.A.
    
                 Prepared using the Tamkin Foundation Computer Network
    
                                  MPC@CFA.HARVARD.EDU
                URL https://www.minorplanetcenter.net/    ISSN 1523-6714
    
                                     2019 PL                                 
    
    
    Observations:
         K19P00L* C2019 08 05.38152 20 44 07.342-11 33 30.03         20.5 wUEP049F51
         K19P00L  C2019 08 05.39410 20 44 10.260-11 32 10.23         20.5 wUEP049F51
         K19P00L  C2019 08 05.40671 20 44 13.183-11 30 50.00         20.4 wUEP049F51
         K19P00L pC2019 08 05.91339620 46 26.21 -10 38 23.5          19.8 GVEP049L01
         K19P00L pC2019 08 05.91470220 46 26.49 -10 38 15.5          19.4 GVEP049L01
         K19P00L KC2019 08 05.91644720 46 26.92 -10 38 05.2          20.0 GVEP049L01
         K19P00L KC2019 08 06.87687 20 50 25.84 -09 02 45.5                VEP049104
         K19P00L KC2019 08 06.90186 20 50 31.20 -09 00 22.4          20.5 GVEP049104
         K19P00L KC2019 08 07.01418 20 50 54.50 -08 49 42.0          19.5 RoEP049K88
         K19P00L KC2019 08 07.01731 20 50 55.19 -08 49 23.8          19.7 RoEP049K88
         K19P00L KC2019 08 07.18227520 51 37.30 -08 33 43.5          20.6 VuEP049H21
         K19P00L KC2019 08 07.18653820 51 38.16 -08 33 19.2          20.4 VuEP049H21
         K19P00L KC2019 08 07.50514220 52 50.60 -08 01 56.1          20.6 GVEP049474
         K19P00L KC2019 08 07.50834520 52 51.24 -08 01 38.9          20.6 GVEP049474
         K19P00L KC2019 08 07.51190520 52 51.96 -08 01 19.3          20.5 GVEP049474
         K19P00L KC2019 08 07.51546420 52 52.70 -08 00 59.7          20.1 GVEP049474
    
    Observer details:
    104 San Marcello Pistoiese.  Observers P. Bacci, M. Maestripieri.  
        Measurers P. Bacci, L. Tesi, G. Fagioli.  0.60-m reflector + CCD.
    474 Mount John Observatory, Lake Tekapo.  Observers A. C. Gilmore,
        P. M. Kilmartin.  Measurer P. M. Kilmartin.  1.0-m f/7.7 reflector + CCD.
    F51 Pan-STARRS 1, Haleakala.  Observers J. Bulger, T. Lowe, A. Schultz,
        M. Willman.  Measurers K. Chambers, S. Chastel, T. de Boer, L. Denneau,
        J. Fairlamb, H. Flewelling, M. Huber, C.-C. Lin, E. Magnier, Y. Ramanjooloo,
        R. Wainscoat, R. Weryk.  1.8-m Ritchey-Chretien + CCD.
    H21 Astronomical Research Observatory, Westfield.  Observer R. Holmes.  
        Measurers S. Foglia, L. Buzzi, T. Linder, R. Holmes.  
        0.76-m f/3.0 astrograph + CCD.
    K88 GINOP-KHK, Piszkesteto.  Observer K. Sarneczky.  0.60-m Schmidt + CCD.
    L01 Visnjan Observatory, Tican.  Observers K. Korlevic, F. Valentine.  
        Measurer K. Korlevic.  1.0-m f/2.9 reflector + CCD.
    
    Orbital elements:
    2019 PL                                                  Earth MOID = 0.0704 AU
    Epoch 2019 Apr. 27.0 TT = JDT 2458600.5  (M-h)          MPC
    M 336.06940              (2000.0)            P               Q
    n   0.31486760     Peri.  338.15009     +0.28638267     +0.95178718
    a   2.1398536      Node   308.31922     -0.85700602     +0.20316437
    e   0.4977423      Incl.    8.05503     -0.42839893     +0.22983779
    P   3.13           H   24.6           G   0.15           U   7
    Residuals in seconds of arc
    190805 F51  0.0   0.1+    190806 104  0.2+  0.3-    190807 474  0.1-  0.2+
    190805 F51  0.1-  0.0     190806 104  0.0   0.2-    190807 474  0.2-  0.2-
    190805 F51  0.0   0.0     190807 K88  0.2-  0.5+    190807 474  0.2-  0.1-
    190805 L01  0.2+  0.1-    190807 K88  0.1+  0.8+    190807 474  0.1+  0.1-
    190805 L01  0.2-  0.1-    190807 H21  0.4+  0.3-
    190805 L01  0.2+  0.6-    190807 H21  0.1+  0.1+
    
    Ephemeris:
    2019 PL                  a,e,i = 2.14, 0.50, 8                   q = 1.0748
    Date    TT    R. A. (2000) Decl.     Delta      r    Elong.  Phase     V
    2019 07 08    14 52 06.6 -59 01 07   0.1028  1.0758   122.7    52.7    21.8
    ...
    2019 07 23    18 54 46.4 -43 38 31   0.07449 1.0824   152.1    26.0    20.3
    ...
    2019 07 31    20 14 04.8 -22 50 31   0.08272 1.0974   172.8     6.7    19.9
    ...
    2019 08 06    20 46 47.1 -10 28 25   0.09972 1.1134   172.6     6.7    20.3
    2019 08 07    20 50 52.7 -08 49 58   0.1032  1.1165   171.4     7.8    20.5
    2019 08 08    20 54 40.8 -07 18 17   0.1069  1.1196   170.2     8.8    20.6
    ...
    2019 08 14    21 12 38.7 -00 10 56   0.1317  1.1407   164.8    13.5    21.3
    ...
    2019 08 22    21 28 13.6 +05 21 42   0.1706  1.1740   160.7    16.6    22.0
    ...
    2019 09 06    21 46 16.9 +09 24 44   0.2589  1.2494   156.1    19.1    23.1
    
    A. U. Tomatic                (C) Copyright 2019 MPC           M.P.E.C. 2019-P49
    


    Read MPEC 2019-P48 Read MPEC 2019-P50


    MPEC number:

    Enter an MPEC number in one of the following forms:

    • 1997-B01 (the full form)
    • J97B01 (the packed version of the full form)
    • B01 (the abbreviated form)